Change the Weather History Date:

Sunday, June 8, 2014

  Actual Average Record
Temperature  
Mean Temperature 58 °F -  
Max Temperature 70 °F 65 °F 84 °F (1963)
Min Temperature 45 °F 44 °F 31 °F (1949)
Degree Days  
Heating Degree Days 8    
Growing Degree Days 8 (Base 50)    
Moisture  
Dew Point 44 °F    
Average Humidity 69    
Maximum Humidity 98    
Minimum Humidity 31    
Precipitation  
Precipitation 0.04 in - - ()
Sea Level Pressure  
Sea Level Pressure 30.02 in    
Wind  
Wind Speed 11 mph (NNW)    
Max Wind Speed 16 mph    
Max Gust Speed 24 mph    
Visibility 10 miles    
Events Rain    
Averages and records for this station are not official NWS values.
T = Trace of Precipitation, MM = Missing Value Source: NWS Daily Summary

Daily Weather History Graph

Daily Weather History Graph

Search for Another Location

Airport or City:

Trip Planner

Search our weather history database for the weather conditions in past years. The results will help you decide how hot, cold, wet, or windy it might be!

Date:

Astronomy

Jun. 08, 2014 Rise Set
Actual Time 5:54 AM EDT 9:33 PM EDT
Civil Twilight 5:16 AM EDT 10:11 PM EDT
Nautical Twilight 4:25 AM EDT 11:02 PM EDT
Astronomical Twilight 3:16 AM EDT 12:11 AM EDT
Moon 4:37 PM EDT (6/8) 3:02 AM EDT (6/8)
Length of Visible Light 16h 55m
Length of Day
15h 38m
Waxing Gibbous, 77% of the Moon is Illuminated
Jun 8
Waxing Gibbous
Jun 13
Full
Jun 19
Last Quarter
Jun 27
New
Jul 5
First Quarter

Hourly Weather History & Observations

Time (EDT) Temp. Windchill Dew Point Humidity Pressure Visibility Wind Dir Wind Speed Gust Speed Precip Events Conditions
12:14 AM 51.8 °F - 48.9 °F 90% 29.97 in 10.0 mi NNW 13.8 mph 24.2 mph N/A   Mostly Cloudy
12:35 AM 51.3 °F - 48.4 °F 90% 29.98 in 10.0 mi North 12.7 mph - N/A   Overcast
12:55 AM 51.1 °F - 48.4 °F 90% 29.97 in 10.0 mi North 12.7 mph 18.4 mph N/A   Overcast
1:15 AM 51.3 °F - 48.7 °F 91% 29.97 in 10.0 mi North 11.5 mph 19.6 mph N/A   Overcast
1:35 AM 51.3 °F - 48.7 °F 91% 29.97 in 10.0 mi NNW 13.8 mph - N/A   Overcast
1:54 AM 50.9 °F - 49.3 °F 94% 29.98 in 10.0 mi NNW 11.5 mph 16.1 mph N/A Rain Rain
2:15 AM 50.4 °F - 49.1 °F 95% 29.97 in 10.0 mi NNW 11.5 mph 18.4 mph 0.01 in Rain Light Rain
2:34 AM 50.0 °F - 49.1 °F 97% 29.98 in 10.0 mi NNW 10.4 mph - 0.01 in Rain Light Rain
2:55 AM 50.0 °F - 49.1 °F 97% 29.97 in 10.0 mi North 11.5 mph - 0.01 in   Light Drizzle
3:15 AM 49.6 °F - 49.1 °F 98% 29.97 in 10.0 mi North 8.1 mph - N/A Rain Rain
3:34 AM 49.6 °F - 48.9 °F 97% 29.96 in 10.0 mi North 10.4 mph 17.3 mph 0.01 in Rain Light Rain
3:55 AM 49.6 °F - 48.7 °F 97% 29.96 in 10.0 mi North 11.5 mph - 0.02 in Rain Light Rain
4:15 AM 49.6 °F - 48.7 °F 97% 29.96 in 10.0 mi North 10.4 mph - N/A   Light Drizzle
4:34 AM 49.6 °F - 48.7 °F 97% 29.97 in 10.0 mi NNW 9.2 mph - N/A Rain Rain
4:55 AM 49.8 °F - 49.1 °F 97% 29.97 in 10.0 mi North 11.5 mph 18.4 mph N/A Rain Light Rain
5:14 AM 49.6 °F - 48.7 °F 97% 29.97 in 10.0 mi North 13.8 mph 19.6 mph N/A   Overcast
5:35 AM 49.5 °F - 48.6 °F 97% 29.97 in 10.0 mi North 11.5 mph 17.3 mph N/A   Overcast
5:55 AM 49.1 °F - 48.4 °F 97% 29.97 in 10.0 mi North 12.7 mph 21.9 mph 0.01 in Rain Light Rain
6:14 AM 49.1 °F - 48.2 °F 97% 30.00 in 10.0 mi North 8.1 mph - N/A Rain Light Rain
6:35 AM 49.1 °F - 48.4 °F 97% 30.01 in 10.0 mi North 6.9 mph - N/A   Overcast
6:55 AM 49.1 °F - 48.2 °F 97% 30.01 in 10.0 mi North 9.2 mph - N/A   Overcast
7:14 AM 49.1 °F - 48.4 °F 97% 30.01 in 10.0 mi NNW 13.8 mph 19.6 mph N/A   Overcast
7:35 AM 49.1 °F - 48.2 °F 97% 30.01 in 10.0 mi North 8.1 mph - N/A   Overcast
7:54 AM 49.1 °F - 47.8 °F 95% 30.02 in 10.0 mi North 10.4 mph 16.1 mph N/A   Overcast
8:15 AM 49.8 °F - 48.6 °F 95% 30.02 in 10.0 mi North 8.1 mph - N/A   Overcast
8:35 AM 50.5 °F - 48.6 °F 93% 30.02 in 10.0 mi North 12.7 mph - N/A   Mostly Cloudy
8:54 AM 53.4 °F - 49.6 °F 87% 30.03 in 10.0 mi North 13.8 mph 19.6 mph N/A   Scattered Clouds
9:15 AM 55.2 °F - 50.0 °F 83% 30.02 in 10.0 mi North 8.1 mph 17.3 mph N/A   Clear
9:35 AM 56.5 °F - 50.0 °F 79% 30.02 in 10.0 mi NNW 11.5 mph - N/A   Clear
9:54 AM 58.1 °F - 49.8 °F 74% 30.03 in 10.0 mi North 9.2 mph - N/A   Clear
10:15 AM 60.4 °F - 49.5 °F 67% 30.03 in 10.0 mi North 11.5 mph 18.4 mph N/A   Clear
10:35 AM 61.0 °F - 48.4 °F 63% 30.03 in 10.0 mi North 12.7 mph 19.6 mph N/A   Clear
10:54 AM 61.9 °F - 48.0 °F 60% 30.04 in 10.0 mi NNW 8.1 mph 19.6 mph N/A   Clear
2:15 PM 69.6 °F - 46.2 °F 43% 30.05 in 10.0 mi North - - N/A   Scattered Clouds
2:35 PM 69.8 °F - 44.4 °F 40% 30.05 in 10.0 mi NNW 6.9 mph 19.6 mph N/A   Scattered Clouds
2:54 PM 70.0 °F - 45.7 °F 42% 30.04 in 10.0 mi NW 13.8 mph 20.7 mph N/A   Scattered Clouds
3:15 PM 70.3 °F - 44.8 °F 40% 30.04 in 10.0 mi NNW 16.1 mph 21.9 mph N/A   Clear
3:34 PM 70.0 °F - 44.4 °F 40% 30.04 in 10.0 mi NW 11.5 mph 21.9 mph N/A   Clear
3:55 PM 70.0 °F - 41.5 °F 36% 30.05 in 10.0 mi NNW 15.0 mph 21.9 mph N/A   Clear
4:15 PM 69.8 °F - 40.3 °F 34% 30.05 in 10.0 mi North 13.8 mph 20.7 mph N/A   Clear
4:34 PM 70.0 °F - 40.3 °F 34% 30.04 in 10.0 mi NNW 16.1 mph 20.7 mph N/A   Clear
4:55 PM 69.1 °F - 39.6 °F 34% 30.04 in 10.0 mi NNW 16.1 mph 21.9 mph N/A   Clear
5:15 PM 69.1 °F - 39.7 °F 34% 30.04 in 10.0 mi NW 15.0 mph 24.2 mph N/A   Clear
5:34 PM 68.9 °F - 37.2 °F 31% 30.04 in 10.0 mi NNW 16.1 mph 20.7 mph N/A   Clear
5:55 PM 68.2 °F - 37.8 °F 33% 30.04 in 10.0 mi NW 12.7 mph 21.9 mph N/A   Clear
6:14 PM 67.8 °F - 38.8 °F 35% 30.05 in 10.0 mi NNW 11.5 mph 17.3 mph N/A   Clear
6:34 PM 67.3 °F - 38.3 °F 35% 30.04 in 10.0 mi NNW 8.1 mph - N/A   Clear
6:55 PM 66.2 °F - 37.4 °F 35% 30.05 in 10.0 mi NNW 10.4 mph 18.4 mph N/A   Clear
7:14 PM 64.8 °F - 36.3 °F 35% 30.05 in 10.0 mi NNW 11.5 mph - N/A   Clear
7:35 PM 63.5 °F - 35.2 °F 35% 30.06 in 10.0 mi NW 11.5 mph - N/A   Clear
7:55 PM 61.9 °F - 36.0 °F 38% 30.06 in 10.0 mi NNW 8.1 mph - N/A   Clear
8:14 PM 61.0 °F - 36.3 °F 40% 30.06 in 10.0 mi NNW 5.8 mph - N/A   Clear
8:35 PM 58.6 °F - 36.0 °F 43% 30.06 in 10.0 mi NNW 8.1 mph - N/A   Clear
8:55 PM 58.1 °F - 36.3 °F 44% 30.06 in 10.0 mi NNW 5.8 mph - N/A   Clear
9:14 PM 56.8 °F - 36.1 °F 46% 30.06 in 10.0 mi NNW 5.8 mph - N/A   Clear
9:35 PM 54.7 °F - 35.8 °F 49% 30.07 in 10.0 mi NNW 3.5 mph - N/A   Clear
9:54 PM 52.5 °F - 36.5 °F 54% 30.07 in 10.0 mi North 6.9 mph - N/A   Clear
10:35 PM 49.6 °F - 36.1 °F 60% 30.08 in 10.0 mi NW 6.9 mph - N/A   Clear
10:54 PM 48.9 °F - 36.0 °F 61% 30.08 in 10.0 mi NNW 4.6 mph - N/A   Clear
11:15 PM 45.9 °F 43.6 °F 35.6 °F 67% 30.08 in 10.0 mi North 4.6 mph - N/A   Clear
11:35 PM 45.7 °F 42.0 °F 35.8 °F 68% 30.09 in 10.0 mi NNW 6.9 mph - N/A   Clear
11:54 PM 45.3 °F 42.3 °F 36.9 °F 72% 30.09 in 10.0 mi North 5.8 mph - N/A   Clear